GW5434 Weather Reports


time (UTC)temp
C
wind
direction
speed
KPH
gust
KPH
rain 1hr
cm
rain 24hr
cm
rain mn
cm
humidity
%
barometer
mb
20260831193039 34 86 3.2 17.7 0.00 0.00 0.00 56 1017.6
20260831181541 32 105 1.6 6.4 0.00 0.00 0.00 64 1018.2
20260831180036 32 162 4.8 9.7 0.00 0.00 0.00 62 1018.2
20260831174508 32 34 1.6 6.4 0.00 0.00 0.00 62 1018.3
20260831173018 33 33 4.8 9.7 0.00 0.00 0.00 59 1018.5
20260831171523 33 145 0.0 12.9 0.00 0.00 0.00 61 1018.8
20260831170033 32 147 4.8 11.3 0.00 0.00 0.00 63 1019.1
20260831163012 32 359 4.8 12.9 0.00 0.00 0.00 65 1019.4
20260831161529 31 60 3.2 11.3 0.00 0.00 0.00 69 1019.5
20260831160023 31 53 1.6 9.7 0.00 0.00 0.00 70 1019.5
20260831154608 31 174 4.8 9.7 0.00 0.00 0.00 72 1019.6
20260831153031 30 79 4.8 9.7 0.00 0.00 0.00 71 1019.8
20260831151513 30 83 0.0 6.4 0.00 0.00 0.00 74 1019.8
20260831150019 30 186 4.8 12.9 0.00 0.00 0.00 74 1019.7
20260831144526 30 123 4.8 16.1 0.00 0.00 0.00 75 1019.6
20260831143034 29 250 1.6 9.7 0.00 0.00 0.00 77 1019.4
20260831141531 28 262 3.2 9.7 0.00 0.00 0.00 78 1019.4
20260831134520 27 65 0.0 4.8 0.00 0.00 0.00 84 1019.3
20260831133027 26 74 1.6 8.0 0.00 0.00 0.00 85 1019.3
20260831131506 26 6 0.0 4.8 0.00 0.00 0.00 86 1019.2
20260831130010 24 53 0.0 0.0 0.00 0.00 0.00 92 1019.1
20260831124519 23 328 0.0 0.0 0.00 0.00 0.00 95 1019.0
20260831123026 22 115 0.0 0.0 0.00 0.00 0.00 95 1018.8
20260831121530 22 115 0.0 0.0 0.00 0.00 0.00 95 1018.6
20260831120010 21 115 0.0 0.0 0.00 0.00 0.00 95 1018.5
20260831114513 21 115 0.0 0.0 0.00 0.00 0.00 95 1018.3
20260831113021 21 115 0.0 0.0 0.00 0.00 0.00 94 1018.2
20260831111536 21 115 0.0 0.0 0.00 0.00 0.00 95 1018.0
20260831104519 21 115 0.0 0.0 0.00 0.00 0.00 94 1017.6
20260831103018 21 115 0.0 0.0 0.00 0.00 0.00 94 1017.6
20260831101523 21 115 0.0 0.0 0.00 0.00 0.00 94 1017.2
20260831100039 21 115 0.0 0.0 0.00 0.00 0.00 94 1017.3
20260831094535 21 115 0.0 0.0 0.00 0.00 0.00 94 1017.3
20260831093030 21 115 0.0 0.0 0.00 0.00 0.00 94 1017.1
20260831091520 22 115 0.0 0.0 0.00 0.00 0.00 94 1017.0
20260831084528 22 115 0.0 0.0 0.00 0.00 0.00 94 1017.0
20260831083043 22 115 0.0 0.0 0.00 0.00 0.00 93 1017.0
20260831081512 22 115 0.0 0.0 0.00 0.00 0.00 94 1017.1
20260831080037 22 115 0.0 0.0 0.00 0.00 0.00 93 1016.9
20260831074530 22 115 0.0 0.0 0.00 0.00 0.00 93 1017.1
20260831073033 22 115 0.0 0.0 0.00 0.00 0.00 93 1017.0
20260831071542 22 115 0.0 0.0 0.00 0.00 0.00 93 1017.1
20260831070018 22 115 0.0 0.0 0.00 0.00 0.00 92 1017.1
20260831064528 22 115 0.0 0.0 0.00 0.00 0.00 92 1017.3
20260831063028 22 115 0.0 0.0 0.00 0.00 0.00 92 1017.5
20260831061530 22 115 0.0 0.0 0.00 0.00 0.00 92 1017.5
20260831060035 23 115 0.0 0.0 0.00 0.00 0.00 92 1017.7
20260831053027 23 115 0.0 0.0 0.00 0.00 0.00 91 1017.7
20260831051533 23 115 0.0 0.0 0.00 0.00 0.00 90 1017.8
20260831050010 23 115 0.0 0.0 0.00 0.00 0.00 90 1017.8
20260831044545 23 115 0.0 0.0 0.00 0.00 0.00 90 1017.8
20260831043022 23 115 0.0 0.0 0.00 0.00 0.00 90 1017.8
20260831041533 23 115 0.0 0.0 0.00 0.00 0.00 89 1017.9
20260831034513 24 115 0.0 0.0 0.00 0.00 0.00 88 1017.9
20260831033100 25 107 0.0 0.0 0.00 0.00 0.00 88 1018.0
20260831031533 25 107 0.0 0.0 0.00 0.00 0.00 87 1017.8
20260831030028 25 107 0.0 0.0 0.00 0.00 0.00 86 1017.9
20260831024531 25 109 0.0 0.0 0.00 0.00 0.00 86 1017.8
20260831023015 25 115 0.0 0.0 0.00 0.00 0.00 86 1017.7
20260831021525 25 122 0.0 0.0 0.00 0.00 0.00 86 1017.6
20260831020030 25 122 0.0 0.0 0.00 0.00 0.00 85 1017.5
20260831014530 26 122 0.0 0.0 0.00 0.00 0.00 85 1017.3
20260831013031 26 131 0.0 0.0 0.00 0.00 0.00 84 1017.0
20260831011516 26 110 0.0 0.0 0.00 0.00 0.00 84 1016.7
20260831010030 27 121 0.0 0.0 0.00 0.00 0.00 81 1016.7
20260831004530 27 148 0.0 0.0 0.00 0.00 0.00 80 1016.6
20260831003032 28 148 0.0 0.0 0.00 0.00 0.00 77 1016.3
20260831001537 30 148 0.0 3.2 0.00 0.00 0.00 73 1016.2
20260831000020 31 195 0.0 3.2 0.00 0.00 0.00 69 1016.1
20260830234527 31 225 1.6 4.8 0.00 0.00 0.00 68 1016.1
20260830233036 31 218 1.6 11.3 0.00 0.00 0.00 68 1016.1